Location: Newark
(37.3333°N, 6.0167°W)
Time: 03:19:42
(UTC+00:00)

Tiangong 2 - Visible Passes

Search period start: 23 March 2019 00:00
Search period end: 02 April 2019 00:00
Orbit: 380 x 390 km, 42.8° (Epoch: 22 March)

Date Brightness Start Highest point End Pass type
(mag) Time Alt. Az. Time Alt. Az. Time Alt. Az.
23 Mar 1.5 05:18:48 28° W 05:20:00 43° SSW 05:23:02 10° SE visible
24 Mar 3.4 04:22:34 21° ESE 04:22:34 21° ESE 04:23:44 10° ESE visible
24 Mar 3.3 05:55:29 10° WSW 05:56:55 12° SW 05:58:21 10° SSW visible
25 Mar 2.9 04:58:45 19° S 04:58:45 19° S 05:00:12 10° SSE visible
28 Mar 3.3 20:06:26 10° SSW 20:07:16 15° S 20:07:16 15° S visible
29 Mar 3.3 19:08:30 10° SSE 19:09:34 11° SE 19:10:38 10° ESE visible
29 Mar 3.5 20:42:46 10° WSW 20:43:42 18° WSW 20:43:42 18° WSW visible
30 Mar 1.6 19:43:27 10° SW 19:46:24 40° SSE 19:47:41 26° E visible
31 Mar 1.3 20:20:26 10° WSW 20:23:32 63° NNW 20:23:42 62° N visible
01 Apr 1.0 19:20:51 10° WSW 19:24:00 76° SSE 19:27:07 10° ENE visible
01 Apr 3.6 20:58:01 10° WNW 20:59:34 22° NW 20:59:34 22° NW visible
